Dewpoint
11 10 10 10 10 9 6 2 -1 -2 -3 -4 -5 -5 -7 -8 -7 -8 -9 -10 -10 -10 -10 -10 -10 -10 -9 -9 -9 -9 -8 -8 -8 -7 -7 -5 -3 -1 1 -5 -3 -2 -3
11 11 10 10 10 10 8 5 1 0 -1 -3 -4 -5 -6 -7 -6 -7 -8 -9 -9 -10 -10 -10 -10 -9 -9 -9 -9 -9 -8 -8 -8 -5 -4 -1 1 -1 -4 -5 -2 -1 -2
9 11 10 10 10 10 10 7 4 2 1 -1 -3 -3 -5 -6 -6 -6 -7 -8 -9 -10 -10 -9 -9 -9 -9 -9 -9 -9 -9 -8 -8 -8 -5 -4 -3 -1 -5 -3 -3 -3 -2
7 8 11 11 10 10 10 8 6 4 3 1 -1 -2 -4 -5 -5 -6 -6 -6 -7 -9 -9 -9 -9 -9 -9 -9 -9 -9 -8 -8 -8 -7 -7 -7 -6 -3 -3 -3 -5 -4 -4
3 5 6 10 8 10 10 10 7 6 5 3 1 -1 -2 -3 -4 -4 -4 -5 -6 -8 -9 -9 -9 -9 -9 -8 -8 -8 -8 -7 -7 -6 -6 -6 -6 -6 -4 -4 -3 -3 -3
5 5 4 6 8 9 10 10 9 7 6 5 4 2 -1 -2 -3 -3 -3 -3 -4 -6 -7 -8 -8 -8 -8 -8 -7 -7 -6 -6 -5 -5 -5 -5 -5 -4 -4 -4 -3 -3 -6
7 7 7 5 6 7 9 10 9 8 7 6 6 4 1 -1 -2 -3 -3 -2 -3 -5 -6 -7 -7 -7 -6 -6 -6 -6 -5 -5 -4 -4 -4 -4 -4 -4 -5 -7 -6 -8 -11
-1 2 6 6 3 5 6 8 8 8 8 8 7 5 3 0 -1 -2 -1 -2 -3 -4 -5 -6 -6 -5 -5 -5 -5 -4 -4 -4 -4 -3 -5 -12 -18 -23 -25 -25 -17 -13 -15
-0 1 -2 3 6 6 6 8 8 9 7 8 7 6 4 2 -0 0 0 -2 -2 -2 -4 -4 -4 -4 -4 -4 -3 -3 -3 -4 -11 -22 -24 -26 -26 -27 -27 -26 -24 -16 -14
-0 -1 1 1 7 4 5 7 9 9 9 9 6 5 4 2 1 1 -1 -1 -1 -3 -3 -3 -3 -4 -3 -3 -3 -4 -14 -22 -25 -26 -27 -27 -28 -28 -28 -26 -24 -19 -10
3 2 3 2 3 5 7 8 9 9 8 8 6 5 3 2 2 0 -1 -1 -2 -2 -2 -3 -3 -3 -3 -4 -11 -22 -25 -26 -27 -28 -29 -29 -29 -26 -23 -21 -22 -19 -11
1 3 4 6 6 6 7 8 8 8 9 8 5 4 3 2 1 0 -1 -2 -2 -2 -2 -2 -2 -3 -7 -21 -25 -26 -27 -27 -28 -29 -28 -27 -26 -24 -23 -22 -21 -17 -13
1 4 6 6 7 7 7 7 8 8 8 5 4 3 3 2 0 -1 -1 -2 -2 -2 -2 -2 -5 -16 -24 -26 -26 -27 -27 -29 -29 -29 -27 -25 -23 -22 -21 -21 -21 -16 -12
2 4 6 6 7 7 6 6 7 6 5 4 4 4 2 0 -1 -2 -2 -2 -2 -2 -3 -10 -22 -25 -26 -27 -27 -28 -29 -30 -29 -26 -24 -22 -21 -21 -20 -19 -15 -10 -9
2 4 5 6 6 6 6 6 5 4 4 4 4 2 0 -1 -1 -1 -1 -2 -3 -7 -18 -24 -26 -26 -26 -27 -28 -29 -29 -27 -25 -23 -22 -21 -20 -20 -19 -19 -13 -9 -8
1 3 5 5 5 5 5 4 4 4 4 3 2 0 -1 -1 -1 -1 -2 -4 -12 -22 -25 -26 -25 -26 -27 -28 -28 -27 -26 -25 -23 -22 -20 -19 -19 -19 -18 -18 -18 -17 -12
-0 1 4 5 5 5 5 4 4 3 2 1 0 -0 -0 -1 -1 -3 -7 -18 -24 -25 -20 -25 -26 -26 -27 -27 -27 -26 -24 -23 -21 -19 -19 -19 -18 -17 -16 -16 -14 -11 -8
-5 -2 2 4 5 5 4 4 3 3 2 1 0 -0 -1 -1 -4 -11 -21 -24 -18 -14 -16 -21 -26 -26 -27 -26 -26 -25 -22 -21 -19 -19 -19 -18 -16 -13 -13 -9 -8 -7 -7
-4 -2 0 3 4 4 4 4 3 2 1 1 0 -0 -2 -5 -12 -22 -24 -10 -10 -12 -24 -25 -26 -26 -26 -26 -25 -23 -21 -20 -19 -18 -18 -16 -14 -9 -8 -7 -7 -8 -8
-4 -3 1 3 3 3 3 3 2 2 1 0 -0 -2 -5 -14 -22 -20 -8 -4 -18 -25 -25 -25 -26 -26 -25 -24 -23 -22 -20 -17 -13 -12 -10 -8 -8 -9 -8 -8 -8 -8 -7
-5 -1 1 2 3 3 3 2 2 1 1 -0 -2 -7 -17 -22 -14 -7 -7 -23 -24 -24 -25 -25 -25 -24 -24 -23 -22 -21 -19 -14 -9 -8 -8 -8 -8 -9 -8 -8 -7 -7 -7
-5 -2 1 2 3 3 3 3 2 1 -0 -2 -8 -17 -20 -21 -18 -10 -23 -23 -24 -24 -25 -24 -24 -23 -23 -23 -22 -21 -19 -17 -13 -9 -8 -8 -8 -8 -8 -8 -8 -9 -9
-4 -3 0 1 1 1 2 2 1 -0 -3 -9 -17 -19 -20 -20 -9 -14 -22 -23 -24 -24 -23 -23 -23 -23 -23 -22 -22 -21 -18 -15 -12 -9 -10 -10 -9 -9 -9 -9 -10 -11 -11
-4 -3 -1 -0 -0 0 0 0 -0 -3 -9 -17 -18 -19 -16 -5 -11 -21 -23 -23 -23 -23 -22 -23 -23 -23 -22 -22 -21 -18 -15 -9 -9 -9 -9 -9 -9 -10 -10 -10 -11 -10 -10
-4 -3 -2 -1 -1 -0 -1 -1 -3 -9 -16 -17 -18 -11 -4 -12 -20 -22 -23 -22 -22 -22 -22 -23 -22 -22 -21 -19 -19 -10 -9 -9 -10 -10 -10 -9 -10 -10 -11 -11 -11 -11 -11
-4 -3 -2 -2 -1 -1 -2 -4 -9 -15 -16 -17 -7 -4 -9 -9 -21 -22 -21 -21 -22 -22 -22 -22 -22 -22 -21 -18 -11 -10 -10 -10 -10 -10 -9 -10 -10 -11 -11 -11 -11 -12 -12
Wind_Speed
16 20 26 28 27 26 26 26 25 23 23 22 20 19 17 16 15 14 13 12 11 11 10 9 8 8 7 6 5 5 4 4 4 3 2 3 4 5 5 5 6 6 6
12 18 24 28 31 28 27 27 26 25 24 23 21 19 18 18 17 15 14 13 12 11 10 10 9 8 7 6 5 5 4 4 4 4 5 4 3 7 6 6 7 8 9
23 14 23 29 30 32 32 30 29 27 25 23 22 20 18 18 18 17 15 13 13 11 10 10 10 9 8 7 6 5 5 5 4 4 4 2 3 4 8 7 8 10 10
37 19 21 29 32 34 33 32 31 28 26 25 24 22 21 21 19 17 16 15 14 12 12 12 10 10 9 7 6 5 5 5 5 4 4 5 6 2 3 6 8 10 14
22 30 26 30 29 31 33 34 32 31 28 26 25 23 22 21 18 18 17 16 14 13 13 13 11 10 9 7 6 5 5 6 5 5 5 5 6 6 4 8 7 9 10
31 31 25 29 29 27 32 34 34 35 31 27 26 25 25 22 19 19 19 17 15 15 14 12 11 10 8 7 7 6 5 5 5 5 5 5 4 4 5 8 11 14 14
30 43 40 31 27 33 35 35 37 36 34 30 29 27 25 22 21 19 19 19 18 16 15 12 11 10 9 7 7 6 5 5 5 5 6 7 8 10 12 12 13 14 17
15 30 41 47 32 44 30 37 37 38 34 34 33 30 28 25 22 20 20 19 17 16 15 13 12 10 8 8 7 6 5 5 6 6 8 10 12 13 15 16 15 17 16
9 14 25 36 42 46 44 41 37 38 31 42 38 34 29 27 24 22 20 19 19 18 16 14 12 10 8 8 6 6 5 5 7 9 11 13 15 17 19 19 19 17 17
11 12 12 20 26 39 40 40 42 48 49 47 39 34 29 27 25 23 21 20 19 18 16 14 12 10 8 7 6 6 6 7 9 12 14 16 18 20 21 22 21 20 17
11 9 10 14 21 26 33 39 42 45 42 41 40 34 29 27 25 23 21 20 19 18 16 14 12 9 8 7 6 6 8 10 13 15 18 19 20 20 20 20 21 20 17
11 11 10 10 15 20 24 28 32 35 38 39 36 32 28 26 26 23 21 20 19 18 15 13 11 10 8 6 7 9 11 13 16 18 18 19 20 20 20 20 20 19 18
10 9 8 10 11 14 17 21 28 32 35 37 34 29 28 27 24 22 22 21 20 18 15 13 11 9 7 8 9 11 14 15 17 18 18 19 20 20 20 20 21 20 18
11 9 9 9 11 15 18 22 27 30 34 33 31 29 27 25 23 23 22 21 19 16 14 12 10 7 7 9 11 13 15 16 17 18 19 20 21 21 22 21 19 17 17
14 13 12 13 13 17 21 24 29 32 32 30 28 26 26 25 25 24 23 20 18 16 13 10 8 7 8 11 13 15 16 17 18 19 20 21 22 22 22 21 19 17 18
15 15 16 16 18 21 24 27 29 29 27 27 27 28 28 27 25 23 21 19 17 14 11 7 7 8 10 13 14 16 17 18 19 20 21 21 22 22 23 23 23 24 22
14 18 21 21 21 23 25 27 28 28 29 29 29 29 28 26 24 23 21 19 15 11 8 7 8 10 12 14 15 17 18 19 20 20 21 22 23 23 23 24 24 23 22
15 19 22 24 25 25 27 29 30 31 31 31 30 28 27 26 25 23 20 16 11 7 6 10 11 11 13 15 16 18 18 19 20 21 22 23 23 22 22 22 22 22 23
13 15 22 24 25 25 26 27 29 29 30 30 30 30 28 26 24 21 18 11 6 7 11 9 10 12 13 15 16 17 18 20 21 21 22 21 22 20 20 22 25 25 25
11 12 20 25 26 28 28 29 31 32 33 33 31 29 27 25 23 18 11 8 11 10 9 10 11 13 14 15 16 18 19 19 19 19 19 18 19 19 20 21 23 26 25
12 14 22 26 27 29 30 31 32 34 34 32 30 29 27 23 17 12 11 13 10 9 9 10 12 13 14 15 16 17 18 18 18 17 17 17 20 21 21 21 25 25 24
14 16 23 28 29 30 32 33 33 34 33 31 30 29 26 21 17 12 13 11 9 9 9 10 12 13 15 17 18 18 19 21 21 19 18 19 20 23 24 24 25 27 31
17 17 24 29 30 31 32 34 36 34 33 32 30 27 22 18 13 13 13 11 9 8 10 11 12 13 16 18 19 20 20 18 17 18 21 22 24 24 22 22 29 29 25
18 19 25 29 31 33 33 34 34 34 34 32 28 24 20 16 14 15 11 9 9 8 9 11 13 15 17 19 19 19 18 16 17 19 21 23 24 25 24 24 21 19 19
20 22 26 31 33 34 35 34 35 36 34 31 27 23 18 16 15 12 11 9 8 8 10 13 15 18 19 18 20 17 18 18 20 22 23 21 21 21 22 20 19 19 19
24 24 27 32 35 37 37 36 36 35 33 31 25 19 17 16 15 12 9 8 9 10 12 14 17 19 21 20 17 15 19 20 20 21 18 20 19 20 20 20 19 18 19
Wind_Direction
232 221 215 212 210 209 208 208 207 204 203 201 199 198 198 193 192 191 189 188 189 187 187 184 184 182 178 178 181 177 167 161 163 164 203 218 221 230 240 265 260 260 280
231 218 215 213 213 212 211 212 211 211 210 210 209 208 203 200 200 197 194 193 195 192 194 193 192 191 190 194 200 201 200 196 185 189 191 194 242 237 249 259 245 259 278
254 234 218 215 213 214 213 214 215 214 214 214 212 211 210 208 206 203 202 201 197 196 201 202 198 199 203 204 208 219 224 227 219 210 197 233 233 207 270 246 252 266 270
243 234 235 219 216 217 217 216 215 217 216 217 216 217 220 214 213 212 207 204 201 200 208 207 205 209 212 213 217 226 237 243 248 250 250 243 244 255 258 273 264 265 278
245 260 265 240 223 218 219 216 216 216 217 217 218 219 221 223 221 213 210 205 204 205 207 207 208 214 218 219 223 229 237 252 260 268 277 277 278 275 261 274 271 289 292
205 233 260 246 245 236 224 216 215 217 214 217 219 222 221 222 223 220 215 209 210 212 206 209 213 215 218 224 228 233 243 258 268 276 280 282 280 281 284 287 293 294 301
212 217 222 238 241 242 229 217 214 216 214 214 220 219 220 223 226 228 220 218 216 211 211 211 215 215 216 226 235 241 250 262 274 286 293 295 293 293 293 292 292 288 298
215 216 223 224 229 238 227 223 214 216 214 217 216 216 217 219 222 222 220 219 217 214 214 212 211 214 221 230 236 244 255 270 281 289 294 296 299 301 299 295 294 296 293
250 219 218 222 226 229 222 219 211 208 230 222 213 212 212 215 219 216 216 217 214 215 210 208 211 216 222 226 234 242 255 271 285 293 296 299 300 299 296 295 294 292 294
293 280 249 222 220 226 230 225 214 213 213 211 210 210 207 211 211 212 218 214 214 210 209 209 209 213 217 222 230 246 265 281 289 293 296 297 298 298 297 296 295 292 284
304 292 267 244 225 225 222 221 216 216 213 210 205 205 204 204 209 207 206 210 209 207 205 205 207 207 211 221 239 260 275 284 292 296 298 299 299 298 297 295 296 292 285
299 300 279 248 226 218 217 217 215 212 212 206 201 200 198 200 200 201 202 200 200 200 202 203 203 204 210 227 253 271 284 292 297 298 300 299 299 298 296 295 294 290 289
281 270 258 247 229 215 205 204 204 208 201 196 193 192 194 195 196 196 193 193 195 197 196 197 201 207 224 249 271 285 292 298 300 299 299 298 298 298 297 297 295 292 290
256 244 235 214 199 199 196 194 195 192 188 189 188 189 189 190 190 188 190 189 189 191 192 195 205 223 249 272 287 293 298 300 299 299 299 299 300 301 299 297 296 293 290
246 229 220 204 194 186 185 186 183 181 184 184 184 184 185 185 184 185 185 184 185 186 190 199 219 247 272 286 296 298 299 299 300 301 301 301 300 298 297 295 292 288 289
239 222 215 207 193 185 179 178 180 181 182 184 184 184 183 182 182 181 182 183 183 186 193 210 244 267 285 294 297 300 301 302 302 301 300 301 301 301 298 296 294 291 286
240 228 217 209 201 194 189 186 185 184 184 185 184 183 181 180 180 180 180 180 182 186 208 237 266 282 289 297 300 302 303 303 301 300 303 302 301 301 300 298 296 293 289
267 236 218 209 205 199 193 192 189 188 187 184 182 181 181 181 179 177 177 178 181 203 243 260 268 284 294 300 302 302 303 301 303 303 302 301 301 299 299 296 294 290 287
286 241 219 214 209 205 202 197 191 189 186 185 184 183 183 180 178 176 176 181 202 236 242 262 281 291 296 300 301 304 305 304 302 301 301 300 299 298 295 296 296 292 289
298 238 214 209 205 202 198 194 191 189 188 188 186 184 181 180 177 173 186 210 220 232 255 274 286 294 299 303 306 308 307 306 305 305 300 299 298 299 301 297 294 292 294
280 238 214 212 207 203 198 194 193 191 190 187 185 181 177 178 178 193 210 211 226 243 263 283 294 300 303 304 308 311 311 306 301 299 299 298 296 303 304 299 294 293 301
267 239 217 210 209 205 201 197 194 193 190 186 182 179 180 179 176 198 211 223 236 257 278 288 293 299 305 310 314 312 307 302 298 297 295 296 298 303 298 295 292 295 299
263 241 220 211 209 206 204 198 197 192 186 183 180 179 179 176 192 212 222 229 249 266 275 289 303 308 311 311 310 306 303 301 300 297 295 297 296 301 300 297 299 302 300
254 236 219 211 205 201 201 202 194 188 185 181 180 179 174 195 205 217 223 239 252 269 291 301 305 306 308 307 306 305 304 308 312 309 304 303 300 299 301 307 305 301 297
249 233 220 210 205 199 197 196 194 186 182 182 179 176 196 198 214 220 231 244 265 285 292 298 303 304 303 303 304 306 299 295 299 306 304 299 303 305 306 305 301 299 297
241 227 217 212 204 199 195 192 189 186 184 178 178 190 193 209 218 226 236 255 274 286 297 301 298 296 298 300 300 300 291 292 301 302 296 298 301 303 303 300 296 294 298
Height
1507 1508 1511 1514 1517 1520 1521 1523 1526 1528 1531 1533 1536 1538 1540 1542 1544 1545 1546 1547 1548 1549 1551 1553 1555 1556 1557 1558 1559 1560 1560 1560 1561 1561 1561 1560 1560 1560 1560 1560 1559 1558 1558
1506 1505 1508 1510 1512 1514 1517 1521 1523 1525 1528 1531 1534 1536 1538 1540 1542 1543 1544 1545 1548 1548 1550 1551 1553 1554 1556 1557 1558 1559 1559 1559 1559 1560 1560 1561 1561 1559 1558 1558 1557 1557 1557
1506 1503 1505 1504 1507 1510 1513 1516 1519 1522 1525 1528 1531 1534 1536 1538 1540 1541 1543 1544 1546 1546 1549 1550 1551 1552 1554 1554 1556 1558 1559 1558 1558 1558 1559 1559 1558 1558 1557 1556 1555 1555 1555
1498 1499 1502 1501 1501 1504 1508 1511 1515 1519 1521 1524 1528 1530 1534 1535 1537 1539 1541 1542 1544 1543 1546 1549 1549 1550 1551 1552 1553 1555 1557 1558 1557 1556 1556 1555 1556 1557 1557 1555 1554 1553 1553
1486 1491 1494 1496 1494 1497 1500 1506 1510 1514 1517 1520 1524 1528 1531 1534 1535 1537 1539 1540 1542 1542 1543 1545 1546 1548 1550 1550 1551 1552 1554 1556 1556 1554 1554 1553 1553 1554 1554 1554 1554 1552 1551
1479 1488 1486 1490 1494 1496 1496 1500 1504 1508 1512 1515 1519 1523 1527 1529 1532 1535 1536 1538 1539 1540 1541 1543 1544 1546 1547 1549 1549 1549 1550 1552 1553 1553 1552 1552 1552 1552 1552 1551 1550 1549 1546
1478 1478 1482 1482 1485 1488 1490 1492 1497 1501 1505 1509 1513 1517 1522 1526 1529 1532 1533 1535 1536 1537 1539 1540 1543 1544 1545 1546 1548 1548 1548 1549 1550 1550 1550 1550 1549 1548 1548 1547 1545 1543 1541
1470 1472 1471 1475 1477 1480 1486 1488 1490 1494 1499 1502 1505 1510 1514 1521 1525 1528 1531 1532 1534 1535 1537 1538 1540 1542 1542 1544 1546 1546 1546 1547 1548 1548 1547 1547 1545 1544 1543 1542 1541 1538 1536
1467 1468 1468 1468 1469 1474 1478 1480 1481 1487 1492 1497 1501 1503 1508 1513 1520 1525 1528 1530 1531 1533 1535 1536 1538 1539 1541 1542 1544 1545 1545 1545 1546 1545 1545 1543 1541 1540 1539 1538 1536 1534 1531
1458 1456 1457 1461 1464 1467 1471 1472 1474 1477 1482 1487 1495 1499 1502 1510 1515 1519 1523 1527 1529 1532 1533 1534 1535 1537 1539 1541 1542 1543 1542 1542 1543 1542 1541 1539 1537 1536 1534 1533 1531 1529 1527
1454 1453 1452 1451 1455 1459 1463 1465 1468 1471 1481 1484 1489 1494 1498 1505 1512 1515 1518 1523 1527 1530 1531 1532 1533 1534 1537 1538 1540 1541 1540 1539 1538 1538 1537 1535 1533 1532 1530 1527 1525 1523 1522
1453 1449 1449 1450 1452 1455 1458 1459 1462 1467 1472 1480 1485 1491 1496 1501 1507 1510 1514 1519 1524 1527 1529 1531 1532 1533 1534 1535 1538 1538 1537 1536 1534 1533 1532 1530 1528 1526 1525 1522 1520 1518 1516
1452 1452 1450 1447 1447 1448 1451 1453 1457 1463 1469 1475 1481 1487 1493 1499 1503 1507 1512 1516 1520 1523 1526 1529 1530 1531 1531 1533 1534 1534 1533 1531 1530 1528 1527 1525 1523 1521 1519 1517 1515 1512 1510
1449 1448 1448 1446 1445 1447 1449 1452 1457 1462 1467 1474 1480 1484 1490 1495 1500 1505 1510 1513 1517 1521 1524 1526 1529 1529 1530 1530 1529 1529 1528 1526 1525 1523 1522 1520 1518 1516 1514 1512 1510 1507 1505
1444 1444 1447 1446 1445 1445 1447 1452 1456 1462 1467 1472 1477 1483 1488 1493 1498 1503 1507 1512 1515 1519 1521 1524 1526 1526 1526 1525 1525 1524 1523 1522 1520 1518 1517 1515 1513 1511 1509 1506 1504 1502 1499
1441 1442 1444 1446 1447 1447 1449 1452 1457 1461 1467 1471 1476 1481 1486 1491 1496 1501 1506 1510 1513 1517 1519 1521 1523 1523 1522 1521 1520 1519 1518 1517 1515 1514 1512 1509 1506 1504 1502 1500 1498 1496 1493
1440 1440 1440 1443 1446 1448 1450 1452 1456 1461 1466 1470 1474 1480 1485 1490 1495 1499 1504 1508 1512 1514 1516 1518 1519 1519 1518 1517 1516 1515 1513 1512 1510 1509 1506 1504 1502 1499 1496 1494 1491 1489 1487
1434 1435 1437 1439 1443 1446 1450 1452 1455 1460 1464 1469 1473 1479 1484 1488 1493 1498 1502 1507 1509 1512 1514 1515 1515 1514 1514 1513 1511 1510 1508 1507 1505 1503 1501 1498 1496 1493 1491 1488 1486 1484 1482
1431 1430 1432 1435 1439 1443 1447 1451 1454 1458 1463 1467 1472 1476 1481 1486 1492 1497 1501 1504 1507 1509 1510 1510 1510 1510 1509 1508 1506 1505 1503 1501 1499 1497 1494 1492 1490 1488 1487 1484 1480 1478 1475
1429 1428 1430 1432 1436 1439 1443 1447 1450 1455 1460 1465 1470 1475 1481 1486 1490 1495 1498 1501 1504 1505 1506 1506 1506 1505 1505 1504 1502 1501 1498 1496 1494 1492 1490 1487 1485 1483 1481 1479 1475 1470 1468
1427 1427 1427 1430 1433 1436 1440 1444 1448 1453 1458 1464 1469 1474 1480 1484 1488 1493 1496 1499 1500 1501 1501 1501 1501 1501 1500 1499 1497 1495 1493 1491 1489 1487 1485 1483 1481 1478 1475 1473 1469 1465 1461
1424 1424 1424 1426 1430 1433 1437 1441 1446 1450 1457 1462 1467 1473 1478 1482 1487 1491 1494 1495 1496 1497 1497 1498 1497 1496 1495 1493 1492 1490 1489 1486 1483 1482 1480 1477 1475 1472 1470 1466 1463 1459 1454
1421 1420 1421 1423 1426 1430 1434 1438 1442 1449 1455 1460 1466 1471 1476 1480 1485 1489 1491 1492 1493 1493 1494 1493 1492 1491 1490 1489 1487 1485 1483 1481 1478 1476 1474 1471 1469 1466 1462 1459 1455 1451 1447
1415 1416 1417 1419 1422 1426 1432 1437 1442 1447 1453 1458 1464 1470 1474 1478 1483 1485 1486 1488 1489 1489 1489 1488 1488 1487 1486 1484 1482 1479 1477 1475 1474 1471 1468 1465 1462 1459 1456 1451 1448 1445 1442
1408 1409 1411 1414 1418 1423 1428 1434 1439 1445 1452 1458 1463 1467 1471 1477 1479 1481 1482 1483 1484 1484 1484 1483 1482 1481 1480 1479 1476 1474 1473 1471 1469 1465 1462 1459 1456 1453 1450 1447 1444 1441 1438
1401 1402 1405 1409 1413 1418 1424 1430 1437 1443 1449 1454 1459 1464 1471 1474 1475 1477 1478 1478 1479 1479 1479 1478 1478 1477 1474 1471 1470 1469 1467 1465 1463 1460 1457 1454 1451 1448 1445 1442 1438 1435 1431